TimeEST,TemperatureF,Dew PointF,Humidity,Sea Level PressureIn,VisibilityMPH,Wind Direction,Wind SpeedMPH,Gust SpeedMPH,PrecipitationIn,Events,Conditions,WindDirDegrees,DateUTC
12:41 AM,1.4,-4.0,78,30.06,10.0,East,4.6,-,0.00,Snow,Light Snow,80,2013-01-24 05:41:00
12:56 AM,-0.9,-6.0,79,30.14,8.0,ENE,5.8,-,0.00,Snow,Light Snow,70,2013-01-24 05:56:00
1:56 AM,-1.8,-6.9,79,30.14,10.0,East,5.8,-,0.00,,Overcast,80,2013-01-24 06:56:00
2:12 AM,-2.2,-7.6,78,30.06,10.0,East,5.8,-,N/A,,Overcast,80,2013-01-24 07:12:00
2:56 AM,-1.8,-6.9,79,30.15,10.0,ENE,6.9,-,N/A,,Overcast,70,2013-01-24 07:56:00
3:56 AM,-1.8,-6.9,79,30.16,10.0,ENE,6.9,-,N/A,,Overcast,70,2013-01-24 08:56:00
4:56 AM,-1.8,-6.9,79,30.18,10.0,ENE,5.8,-,N/A,,Overcast,70,2013-01-24 09:56:00
5:24 AM,-2.2,-7.6,78,30.10,10.0,ENE,5.8,-,N/A,,Overcast,70,2013-01-24 10:24:00
5:56 AM,-2.9,-8.0,79,30.21,10.0,East,4.6,-,N/A,,Partly Cloudy,80,2013-01-24 10:56:00
6:22 AM,-5.8,-9.4,84,30.13,10.0,East,3.5,-,N/A,,Scattered Clouds,80,2013-01-24 11:22:00
6:56 AM,-4.9,-9.9,79,30.25,10.0,Calm,Calm,-,N/A,,Partly Cloudy,0,2013-01-24 11:56:00
7:44 AM,-5.8,-11.2,77,30.18,10.0,East,4.6,-,N/A,,Mostly Cloudy,90,2013-01-24 12:44:00
7:56 AM,-4.9,-9.9,79,30.29,10.0,ENE,4.6,-,0.00,,Mostly Cloudy,70,2013-01-24 12:56:00
8:56 AM,0.1,-6.0,75,30.32,3.0,Calm,Calm,-,0.00,Snow,Light Snow Showers,0,2013-01-24 13:56:00
9:32 AM,3.2,-2.2,78,30.23,6.0,Calm,Calm,-,0.00,Snow,Light Snow Showers,0,2013-01-24 14:32:00
10:28 AM,8.6,3.2,79,30.25,4.0,NW,5.8,-,0.00,Snow,Light Snow Showers,310,2013-01-24 15:28:00
10:41 AM,8.6,3.2,79,30.27,2.0,NW,8.1,-,0.00,Snow,Light Snow Showers,320,2013-01-24 15:41:00
10:56 AM,9.1,2.1,73,30.36,4.0,NNW,11.5,-,0.00,Snow,Light Snow Showers,330,2013-01-24 15:56:00
11:56 AM,9.1,0.1,67,30.39,10.0,NW,12.7,-,0.00,Snow,Light Snow Showers,320,2013-01-24 16:56:00
12:03 PM,8.6,-0.4,67,30.30,10.0,NW,12.7,-,0.00,Snow,Light Snow Showers,310,2013-01-24 17:03:00
12:30 PM,10.4,-0.4,62,30.30,10.0,NNW,15.0,-,0.00,Snow,Light Snow Showers,330,2013-01-24 17:30:00
12:56 PM,9.1,0.1,67,30.39,7.0,NW,16.1,-,0.00,Snow,Light Snow Showers,320,2013-01-24 17:56:00
1:42 PM,8.6,1.4,73,30.32,1.0,NNW,13.8,19.6,0.00,Snow,Light Snow,330,2013-01-24 18:42:00
1:56 PM,9.1,3.0,76,30.40,1.2,NNW,8.1,-,0.00,Snow,Light Snow,330,2013-01-24 18:56:00
2:37 PM,10.4,1.4,67,30.32,3.0,NW,12.7,-,0.00,Snow,Light Snow,320,2013-01-24 19:37:00
2:56 PM,10.0,2.1,70,30.42,8.0,NW,11.5,-,0.00,Snow,Light Snow Showers,320,2013-01-24 19:56:00
3:56 PM,13.1,0.1,56,30.43,10.0,WNW,20.7,27.6,0.00,Snow,Light Snow Showers,300,2013-01-24 20:56:00
4:56 PM,11.1,0.1,61,30.46,10.0,WNW,18.4,-,0.00,,Mostly Cloudy,300,2013-01-24 21:56:00
5:56 PM,9.1,0.1,67,30.48,10.0,WNW,11.5,-,N/A,,Mostly Cloudy,300,2013-01-24 22:56:00
6:56 PM,9.1,0.1,67,30.50,10.0,NW,16.1,-,N/A,,Mostly Cloudy,320,2013-01-24 23:56:00
7:56 PM,8.1,0.1,70,30.53,10.0,NW,16.1,-,N/A,,Overcast,320,2013-01-25 00:56:00
8:56 PM,8.1,0.1,70,30.50,10.0,West,15.0,-,N/A,,Mostly Cloudy,280,2013-01-25 01:56:00
9:56 PM,8.1,1.0,73,30.49,10.0,WNW,12.7,-,N/A,,Overcast,300,2013-01-25 02:56:00
10:56 PM,9.1,3.0,76,30.49,9.0,WNW,10.4,-,0.00,Snow,Light Snow,300,2013-01-25 03:56:00
11:56 PM,10.0,3.0,73,30.48,7.0,WNW,13.8,-,0.00,Snow,Light Snow,300,2013-01-25 04:56:00